軌道要素
Epoch 2003 July 20.0 TT = JDT 2452840.5
T 2003 July 9.00761 TT MPC
q 2.7920926 (2000.0) P Q
z +0.0008401 Peri. 324.06713 +0.21047303 +0.95761410
+/-0.0000012 Node 42.91333 +0.95076809 -0.24731943
e 0.9976544 Incl. 163.21197 +0.22746678 +0.14767645
>From 542 observations 2001 Mar. 3-2003 Jan. 6, mean residual 0".64.
|